Weather History for KHIO - October, 2013

Change the Weather History Date:

Tuesday, October 1, 2013

  Actual Average Record
Temperature  
Mean Temperature 50 °F 56 °F  
Max Temperature 59 °F 69 °F 92 °F (1987)
Min Temperature 41 °F 43 °F 30 °F (1950)
Degree Days  
Heating Degree Days 15 9  
Month to date heating degree days 15 9  
Since 1 July heating degree days 181 271  
Cooling Degree Days 0 0  
Month to date cooling degree days 0 0  
Year to date cooling degree days 310 197  
Growing Degree Days 2 (Base 50)    
Moisture  
Dew Point 45 °F    
Average Humidity 75    
Maximum Humidity 96    
Minimum Humidity 53    
Precipitation  
Precipitation 0.33 in 0.06 in 0.46 in (1951)
Month to date precipitation 0.33 0.06  
Year to date precipitation 20.22 23.57  
Snow  
Snow 0.00 in - - ()
Month to date snowfall  
Since 1 July snowfall 0.0  
Since 1 September snowfall 0.0  
Snow Depth 0.00 in    
Sea Level Pressure  
Sea Level Pressure 30.08 in    
Wind  
Wind Speed 6 mph (SSW)    
Max Wind Speed 14 mph    
Max Gust Speed 17 mph    
Visibility 9 miles    
Events Rain    
T = Trace of Precipitation, MM = Missing Value Source: NWS Daily Summary

Daily Weather History Graph

Daily Weather History Graph

Search for Another Location

Airport or City:

Trip Planner

Search our weather history database for the weather conditions in past years. The results will help you decide how hot, cold, wet, or windy it might be!

Date:

Astronomy

Oct. 01, 2013 Rise Set
Actual Time 7:10 AM PDT 6:51 PM PDT
Civil Twilight 6:40 AM PDT 7:20 PM PDT
Nautical Twilight 6:06 AM PDT 7:55 PM PDT
Astronomical Twilight 5:31 AM PDT 8:29 PM PDT
Moon 3:41 AM PDT (10/1) 5:04 PM PDT (10/1)
Length of Visible Light 12h 39m
Length of Day
11h 40m
Waning Crescent, 11% of the Moon is Illuminated
Oct 1
Waning Crescent
Oct 4
New
Oct 11
First Quarter
Oct 18
Full
Oct 26
Last Quarter

Hourly Weather History & Observations

Time (PDT) Temp. Windchill Dew Point Humidity Pressure Visibility Wind Dir Wind Speed Gust Speed Precip Events Conditions
12:53 AM 51.1 °F - 46.9 °F 86% 29.99 in 10.0 mi South 4.6 mph - N/A   Overcast
1:53 AM 51.1 °F - 48.0 °F 89% 29.99 in 10.0 mi South 6.9 mph - 0.00 in   Mostly Cloudy
2:53 AM 50.0 °F - 46.9 °F 89% 29.99 in 10.0 mi South 4.6 mph - N/A   Overcast
3:53 AM 48.9 °F - 46.0 °F 90% 29.98 in 10.0 mi South 5.8 mph - 0.00 in   Scattered Clouds
4:53 AM 50.0 °F - 46.9 °F 89% 29.98 in 10.0 mi South 8.1 mph - 0.00 in   Overcast
5:53 AM 48.9 °F - 46.0 °F 90% 29.98 in 10.0 mi SSE 8.1 mph - 0.00 in   Overcast
6:53 AM 50.0 °F - 48.0 °F 93% 30.01 in 4.0 mi South 8.1 mph - 0.08 in Rain Rain
7:53 AM 50.0 °F - 48.0 °F 93% 30.00 in 10.0 mi SSE 6.9 mph - 0.09 in Rain Light Rain
8:53 AM 50.0 °F - 46.9 °F 89% 30.02 in 10.0 mi South 9.2 mph - 0.00 in Rain Light Rain
9:53 AM 50.0 °F - 48.0 °F 93% 30.03 in 10.0 mi Calm Calm - 0.00 in   Mostly Cloudy
10:32 AM 51.1 °F - 48.0 °F 89% 30.04 in 10.0 mi SSW 4.6 mph - N/A   Mostly Cloudy
10:53 AM 52.0 °F - 48.0 °F 86% 30.04 in 10.0 mi South 5.8 mph - N/A   Mostly Cloudy
11:37 AM 52.0 °F - 46.9 °F 83% 30.07 in 1.8 mi WNW 8.1 mph - 0.06 in Rain Heavy Rain
11:53 AM 50.0 °F - 45.0 °F 83% 30.09 in 2.0 mi WSW 8.1 mph - 0.13 in Rain Rain
12:12 PM 48.9 °F - 45.0 °F 86% 30.07 in 8.0 mi SSE 8.1 mph - 0.03 in Rain Light Rain
12:53 PM 53.1 °F - 46.0 °F 77% 30.09 in 10.0 mi South 8.1 mph - 0.03 in   Scattered Clouds
1:53 PM 55.0 °F - 44.1 °F 67% 30.09 in 10.0 mi Variable 4.6 mph - N/A   Mostly Cloudy
2:53 PM 59.0 °F - 43.0 °F 55% 30.11 in 10.0 mi WSW 10.4 mph - N/A   Scattered Clouds
3:53 PM 57.9 °F - 44.1 °F 60% 30.13 in 10.0 mi South 11.5 mph - N/A   Mostly Cloudy
4:53 PM 57.9 °F - 44.1 °F 60% 30.13 in 10.0 mi SSW 9.2 mph - N/A   Scattered Clouds
5:53 PM 55.0 °F - 42.1 °F 62% 30.14 in 10.0 mi West 8.1 mph - N/A   Scattered Clouds
6:53 PM 53.1 °F - 42.1 °F 66% 30.15 in 10.0 mi WSW 5.8 mph - N/A   Clear
7:53 PM 51.1 °F - 43.0 °F 74% 30.18 in 10.0 mi South 3.5 mph - N/A   Clear
8:53 PM 46.0 °F 44.8 °F 43.0 °F 89% 30.19 in 10.0 mi NNE 3.5 mph - N/A   Partly Cloudy
9:53 PM 45.0 °F - 43.0 °F 93% 30.20 in 10.0 mi Calm Calm - N/A   Clear
10:53 PM 44.1 °F - 42.1 °F 93% 30.20 in 10.0 mi Calm Calm - N/A   Overcast
11:53 PM 43.0 °F - 41.0 °F 93% 30.19 in 10.0 mi Calm Calm - N/A   Clear